FW3304 Weather Reports


Display with metric or nautical units.
time (UTC)temp
F
wind
direction
speed
MPH
gust
MPH
rain 1hr
in
rain 24hr
in
rain mn
in
humidity
%
barometer
mb
20260906083021 75 43 0.0 2.0 0.00 0.00 0.00 95 1013.2
20260906083018 75 38 0.0 2.0 0.00 0.00 0.00 95 1010.3
20260906081516 76 38 0.0 1.0 0.00 0.00 0.00 95 1010.1
20260906080017 76 44 0.0 3.0 0.00 0.00 0.00 95 1012.8
20260906074513 76 38 0.0 2.0 0.00 0.00 0.00 94 1010.0
20260906073018 77 38 1.0 3.0 0.00 0.00 0.00 93 1010.2
20260906073016 77 43 0.0 12.0 0.00 0.00 0.00 93 1013.0
20260906071511 77 37 0.0 2.0 0.00 0.00 0.00 93 1010.2
20260906070016 78 62 1.0 12.0 0.00 0.00 0.00 93 1013.0
20260906070011 78 37 0.0 2.0 0.00 0.00 0.00 93 1010.2
20260906064507 77 37 2.0 11.0 0.00 0.00 0.00 94 1010.3
20260906063016 77 0.0 0.0 0.00 0.00 0.00 96 1013.0
20260906063006 77 113 0.0 0.0 0.00 0.00 0.00 96 1010.2
20260906061504 77 113 0.0 0.0 0.00 0.00 0.00 95 1010.3
20260906060016 77 0.0 0.0 0.00 0.00 0.00 95 1013.3
20260906060003 77 113 0.0 0.0 0.00 0.00 0.00 95 1010.4
20260906054501 77 113 0.0 0.0 0.00 0.00 0.00 95 1010.4
20260906053059 77 113 0.0 0.0 0.00 0.00 0.00 95 1010.5
20260906053016 77 0.0 0.0 0.00 0.00 0.00 95 1013.4
20260906051558 77 113 0.0 0.0 0.00 0.00 0.00 95 1010.5
20260906050119 78 113 0.0 0.0 0.00 0.00 0.00 95 1010.6
20260906050021 78 0.0 0.0 0.00 0.00 0.00 95 1013.6
20260906044555 78 113 0.0 0.0 0.00 0.00 0.00 94 1010.8
20260906043057 78 113 0.0 0.0 0.00 0.00 0.00 94 1010.7
20260906043017 78 0.0 0.0 0.00 0.00 0.00 94 1013.7
20260906041554 78 113 0.0 0.0 0.00 0.00 0.00 94 1010.8
20260906040100 78 113 0.0 0.0 0.00 0.00 0.00 94 1010.9
20260906040016 78 0.0 0.0 0.00 0.00 0.00 94 1013.7
20260906034553 79 113 0.0 0.0 0.00 0.00 0.00 94 1010.8
20260906033103 79 113 0.0 0.0 0.00 0.00 0.00 94 1010.6
20260906033016 79 0.0 0.0 0.00 0.00 0.00 94 1013.4
20260906031551 79 113 0.0 0.0 0.00 0.00 0.00 94 1010.2
20260906030051 79 113 0.0 0.0 0.00 0.00 0.00 93 1010.0
20260906030016 79 0.0 0.0 0.00 0.00 0.00 93 1012.8
20260906024552 80 113 0.0 0.0 0.00 0.00 0.00 93 1010.0
20260906023049 80 113 0.0 0.0 0.00 0.00 0.00 93 1009.9
20260906023036 80 0.0 0.0 0.00 0.00 0.00 93 1012.5
20260906021552 80 113 0.0 0.0 0.00 0.00 0.00 92 1009.8
20260906020053 81 113 0.0 0.0 0.00 0.00 0.00 91 1009.8
20260906020016 81 0.0 0.0 0.00 0.00 0.00 91 1012.2
20260906014555 81 113 0.0 0.0 0.00 0.00 0.00 90 1009.7
20260906013049 82 113 0.0 0.0 0.00 0.00 0.00 89 1009.7
20260906013020 82 0.0 0.0 0.00 0.00 0.00 89 1012.2
20260906011546 83 113 0.0 0.0 0.00 0.00 0.00 88 1009.7
20260906010046 84 113 0.0 0.0 0.00 0.00 0.00 87 1009.5
20260906010016 84 0.0 0.0 0.00 0.00 0.00 86 1012.1
20260906004546 85 113 0.0 0.0 0.00 0.00 0.00 85 1009.4
20260906003045 86 113 0.0 0.0 0.00 0.00 0.00 83 1009.4
20260906003016 86 0.0 0.0 0.00 0.00 0.00 83 1012.0
20260906001544 88 113 0.0 0.0 0.00 0.00 0.00 82 1009.4
20260906000044 89 113 0.0 0.0 0.00 0.00 0.00 78 1009.4
20260906000036 89 0.0 0.0 0.00 0.00 0.00 78 1012.0
20260905234547 92 113 0.0 0.0 0.00 0.00 0.00 76 1009.4
20260905233043 93 113 0.0 0.0 0.00 0.00 0.00 73 1009.6
20260905233016 93 0.0 0.0 0.00 0.00 0.00 73 1012.4
20260905231543 94 113 0.0 0.0 0.00 0.00 0.00 67 1009.5
20260905230044 95 113 0.0 0.0 0.00 0.00 0.00 64 1009.7
20260905230016 95 0.0 4.0 0.00 0.00 0.00 66 1012.5
20260905224532 95 113 0.0 0.0 0.00 0.00 0.00 65 1009.6
20260905223027 96 113 0.0 0.0 0.00 0.00 0.00 63 1009.5
20260905223016 96 106 0.0 5.0 0.00 0.00 0.00 63 1012.3
20260905221532 96 113 0.0 3.0 0.00 0.00 0.00 60 1009.5
20260905220023 96 90 1.0 3.0 0.00 0.00 0.00 59 1009.6
20260905220020 96 71 1.0 6.0 0.00 0.00 0.00 59 1012.5
20260905214523 96 74 1.0 5.0 0.00 0.00 0.00 57 1009.7
20260905213020 96 49 2.0 5.0 0.00 0.00 0.00 58 1009.9
20260905213016 96 108 2.0 7.0 0.00 0.00 0.00 58 1012.8
20260905211528 96 79 3.0 5.0 0.00 0.00 0.00 57 1009.8
20260905210017 97 152 1.0 3.0 0.00 0.00 0.00 57 1009.9
20260905210015 97 127 1.0 7.0 0.00 0.00 0.00 57 1012.8
20260905204515 97 81 2.0 6.0 0.00 0.00 0.00 56 1010.0
20260905203016 97 207 1.0 5.0 0.00 0.00 0.00 56 1010.2
20260905201611 97 184 2.0 7.0 0.00 0.00 0.00 57 1010.4
20260905200055 96 210 3.0 10.0 0.00 0.00 0.00 58 1013.5
20260905200012 96 178 3.0 7.0 0.00 0.00 0.00 58 1010.6
20260905194505 95 216 2.0 8.0 0.00 0.00 0.00 60 1011.0
20260905193015 95 213 4.0 10.0 0.00 0.00 0.00 61 1014.1
20260905193003 95 243 2.0 8.0 0.00 0.00 0.00 61 1011.1
20260905191501 95 205 5.0 9.0 0.00 0.00 0.00 62 1011.5
20260905190059 96 202 3.0 5.0 0.00 0.00 0.00 61 1011.7
20260905190015 96 53 2.0 10.0 0.00 0.00 0.00 58 1014.7
20260905184602 95 32 4.0 9.0 0.00 0.00 0.00 58 1011.7
20260905183058 95 125 2.0 5.0 0.00 0.00 0.00 59 1011.9
20260905183020 95 93 2.0 9.0 0.00 0.00 0.00 58 1014.7
20260905181554 95 83 4.0 8.0 0.00 0.00 0.00 61 1012.0
20260905180051 95 67 4.0 6.0 0.00 0.00 0.00 62 1012.2
20260905180015 95 40 3.0 9.0 0.00 0.00 0.00 61 1015.1
20260905174550 95 37 4.0 8.0 0.00 0.00 0.00 61 1012.2
20260905173048 96 346 0.0 6.0 0.00 0.00 0.00 57 1012.3
20260905173015 96 311 2.0 6.0 0.00 0.00 0.00 58 1015.3
20260905171547 95 1 2.0 5.0 0.00 0.00 0.00 60 1012.4
20260905170042 95 279 2.0 5.0 0.00 0.00 0.00 59 1012.6
20260905170015 95 328 1.0 7.0 0.00 0.00 0.00 59 1015.5
20260905164540 95 314 1.0 3.0 0.00 0.00 0.00 58 1012.8
20260905163037 94 303 3.0 6.0 0.00 0.00 0.00 61 1012.9
20260905163015 95 350 1.0 7.0 0.00 0.00 0.00 60 1015.7
20260905161533 94 1 0.0 5.0 0.00 0.00 0.00 63 1012.9
20260905160030 93 352 2.0 5.0 0.00 0.00 0.00 65 1013.1
20260905160015 93 15 2.0 5.0 0.00 0.00 0.00 65 1015.9
20260905154525 92 15 3.0 5.0 0.00 0.00 0.00 67 1013.2
20260905153035 91 127 0.0 3.0 0.00 0.00 0.00 72 1016.1
20260905153024 91 125 0.0 2.0 0.00 0.00 0.00 72 1013.2
20260905151519 90 184 0.0 0.0 0.00 0.00 0.00 73 1013.3
20260905150019 90 0.0 0.0 0.00 0.00 0.00 77 1016.4
20260905150015 90 184 0.0 0.0 0.00 0.00 0.00 77 1013.4
20260905144516 88 184 0.0 0.0 0.00 0.00 0.00 81 1013.3
20260905143015 87 0.0 0.0 0.00 0.00 0.00 83 1016.2
20260905143009 87 184 0.0 0.0 0.00 0.00 0.00 83 1013.4
20260905141505 85 184 0.0 0.0 0.00 0.00 0.00 85 1013.4
20260905140100 84 184 0.0 0.0 0.00 0.00 0.00 87 1013.4
20260905140015 84 0.0 0.0 0.00 0.00 0.00 87 1016.4
20260905134554 82 146 0.0 0.0 0.00 0.00 0.00 89 1013.4
20260905133051 81 146 0.0 0.0 0.00 0.00 0.00 93 1013.4
20260905133015 81 0.0 1.0 0.00 0.00 0.00 93 1016.1
20260905131547 79 146 0.0 0.0 0.00 0.00 0.00 96 1013.4
20260905130043 77 146 0.0 0.0 0.00 0.00 0.00 98 1013.2
20260905130017 77 147 0.0 1.0 0.00 0.00 0.00 98 1016.0
20260905124540 76 146 0.0 1.0 0.00 0.00 0.00 100 1013.2
20260905123038 74 141 0.0 0.0 0.00 0.00 0.00 99 1013.1
20260905123017 74 0.0 0.0 0.00 0.00 0.00 99 1015.8
20260905121536 74 141 0.0 0.0 0.00 0.00 0.00 99 1013.0
20260905120037 73 0.0 0.0 0.00 0.00 0.00 99 1015.5
20260905120033 73 141 0.0 0.0 0.00 0.00 0.00 99 1012.9
20260905114531 73 141 0.0 0.0 0.00 0.00 0.00 98 1012.7
20260905113028 74 141 0.0 0.0 0.00 0.00 0.00 99 1012.6
20260905113021 74 0.0 0.0 0.00 0.00 0.00 99 1015.2
20260905111531 73 141 0.0 0.0 0.00 0.00 0.00 99 1012.6
20260905110026 73 141 0.0 0.0 0.00 0.00 0.00 98 1012.5
20260905110016 73 0.0 0.0 0.00 0.00 0.00 98 1015.1
20260905104525 73 141 0.0 0.0 0.00 0.00 0.00 98 1012.4
20260905103032 74 141 0.0 0.0 0.00 0.00 0.00 98 1012.5
20260905103016 74 0.0 0.0 0.00 0.00 0.00 98 1015.2
20260905101522 74 141 0.0 0.0 0.00 0.00 0.00 98 1012.4
20260905100021 73 141 0.0 0.0 0.00 0.00 0.00 98 1012.2
20260905100016 73 0.0 0.0 0.00 0.00 0.00 98 1015.0
20260905094519 74 141 0.0 0.0 0.00 0.00 0.00 98 1012.2
20260905093018 74 141 0.0 0.0 0.00 0.00 0.00 98 1012.1
20260905091517 74 141 0.0 0.0 0.00 0.00 0.00 98 1012.1
20260905090016 74 0.0 0.0 0.00 0.00 0.00 98 1014.9
20260905090014 74 141 0.0 0.0 0.00 0.00 0.00 98 1012.1
20260905084513 74 141 0.0 0.0 0.00 0.00 0.00 98 1012.1